Weather History for KRUE - November, 2013

Change the Weather History Date:

Wednesday, November 13, 2013

  Actual Average (KHOT) Record (KHOT)
Temperature  
Mean Temperature 34 °F -  
Max Temperature 48 °F 63 °F 84 °F (1955)
Min Temperature 21 °F 38 °F 19 °F (1986)
Degree Days  
Heating Degree Days 30    
Moisture  
Dew Point 20 °F    
Average Humidity 64    
Maximum Humidity 85    
Minimum Humidity 25    
Precipitation  
Precipitation 0.00 in - - ()
Sea Level Pressure  
Sea Level Pressure 30.59 in    
Wind  
Wind Speed 1 mph (SW)    
Max Wind Speed 5 mph    
Max Gust Speed -    
Visibility 10 miles    
Events      
Averages and records for this station are not official NWS values.
T = Trace of Precipitation, MM = Missing Value Source: NWS Daily Summary

Daily Weather History Graph

Daily Weather History Graph

Search for Another Location

Airport or City:

Trip Planner

Search our weather history database for the weather conditions in past years. The results will help you decide how hot, cold, wet, or windy it might be!

Date:

Astronomy

Nov. 13, 2013 Rise Set
Actual Time 6:45 AM CST 5:07 PM CST
Civil Twilight 6:18 AM CST 5:34 PM CST
Nautical Twilight 5:48 AM CST 6:04 PM CST
Astronomical Twilight 5:18 AM CST 6:34 PM CST
Moon 2:48 PM CST (11/13) 2:47 AM CST (11/13)
Length of Visible Light 11h 15m
Length of Day
10h 21m
Waxing Gibbous, 85% of the Moon is Illuminated
Nov 13
Waxing Gibbous
Nov 17
Full
Nov 25
Last Quarter
Dec 2
New
Dec 9
First Quarter

Hourly Weather History & Observations

Time (CST) Temp. Windchill Dew Point Humidity Pressure Visibility Wind Dir Wind Speed Gust Speed Precip Events Conditions
12:53 AM 27.0 °F - 19.9 °F 75% 30.69 in 10.0 mi Calm Calm - N/A   Clear
1:53 AM 26.1 °F - 19.9 °F 78% 30.70 in 10.0 mi Calm Calm - N/A   Clear
2:53 AM 25.0 °F - 19.9 °F 81% 30.70 in 10.0 mi Calm Calm - N/A   Clear
3:53 AM 25.0 °F - 19.9 °F 81% 30.70 in 10.0 mi Calm Calm - N/A   Clear
4:53 AM 23.0 °F - 19.0 °F 85% 30.71 in 10.0 mi Calm Calm - N/A   Clear
5:53 AM 21.9 °F - 18.0 °F 85% 30.71 in 10.0 mi Calm Calm - N/A   Clear
6:53 AM 21.9 °F - 18.0 °F 85% 30.72 in 10.0 mi Calm Calm - N/A   Clear
7:53 AM 26.1 °F - 21.9 °F 84% 30.72 in 10.0 mi Calm Calm - N/A   Clear
8:53 AM 34.0 °F 31.0 °F 21.0 °F 59% 30.72 in 10.0 mi South 3.5 mph - N/A   Clear
9:53 AM 37.0 °F 33.3 °F 19.9 °F 50% 30.71 in 10.0 mi Variable 4.6 mph - N/A   Clear
10:53 AM 39.0 °F 35.7 °F 19.9 °F 46% 30.69 in 10.0 mi WNW 4.6 mph - N/A   Clear
11:53 AM 42.1 °F 40.2 °F 19.9 °F 41% 30.64 in 10.0 mi Variable 3.5 mph - N/A   Clear
12:53 PM 44.1 °F - 18.0 °F 35% 30.59 in 10.0 mi Calm Calm - N/A   Clear
1:53 PM 46.0 °F - 14.0 °F 28% 30.55 in 10.0 mi Calm Calm - N/A   Clear
2:53 PM 48.9 °F - 14.0 °F 25% 30.51 in 10.0 mi SSW 3.5 mph - N/A   Clear
3:53 PM 48.0 °F - 15.1 °F 27% 30.49 in 10.0 mi Calm Calm - N/A   Clear
4:53 PM 41.0 °F - 25.0 °F 53% 30.48 in 10.0 mi Calm Calm - N/A   Clear
5:53 PM 34.0 °F - 25.0 °F 70% 30.48 in 10.0 mi Calm Calm - N/A   Clear
6:53 PM 33.1 °F - 24.1 °F 70% 30.48 in 10.0 mi Calm Calm - N/A   Clear
7:53 PM 30.9 °F - 25.0 °F 79% 30.46 in 10.0 mi Calm Calm - N/A   Clear
8:53 PM 30.0 °F - 23.0 °F 75% 30.45 in 10.0 mi Calm Calm - N/A   Clear
9:53 PM 30.0 °F - 23.0 °F 75% 30.44 in 10.0 mi Calm Calm - N/A   Clear
10:53 PM 30.0 °F - 23.0 °F 75% 30.43 in 10.0 mi Calm Calm - N/A   Clear
11:53 PM 28.9 °F - 21.9 °F 75% 30.42 in 10.0 mi Calm Calm - N/A   Clear